Regional Weather Roundup
Issued by NWS

Home | Current Version | Previous Version | Graphics & Text | Print | Product List | Glossary On
Versions: 1 2 3 4 5 6 7 8 9 10 11 12 13 14 15 16 17 18 19 20 21 22 23 24 25 26 27 28 29 30 31 32 33 34 35 36 37 38 39 40 41 42 43 44 45 46 47 48 49 50
000
ASUS45 KBOU 111210
RWRCO

WEATHER ROUNDUP FOR COLORADO
NATIONAL WEATHER SERVICE DENVER/BOULDER CO
600 AM MDT FRI JUL 11 2014

NOTE: "FAIR" INDICATES FEW OR NO CLOUDS BELOW 12000 FEET WITH NO
SIGNIFICANT WEATHER AND/OR OBSTRUCTIONS TO VISIBILITY.

COZ001>005-013-030-031-111300-
...NORTHWEST COLORADO...

CITY           SKY/WX    TMP DP  RH WIND       PRES   REMARKS
CRAIG          PTCLDY    55  55 100 CALM      30.22S
HAYDEN         PTCLDY    57  52  82 E6        30.25S
MEEKER         LGT RAIN  60  55  83 VRB5      30.22F
MOUNT WERNER   NOT AVBL
STEAMBOAT SPGS PTCLDY    54  52  94 CALM      30.28R
WALDEN         CLOUDY    52  46  82 E3        30.34R
$$

COZ006>008-011-111300-
...WEST CENTRAL VALLEYS...

CITY           SKY/WX    TMP DP  RH WIND       PRES   REMARKS
GRAND JUNCTION PTCLDY    65  59  81 CALM      30.10R
MONTROSE       CLEAR     62  55  77 SE9       30.21R
EAGLE          MOCLDY    59  57  94 E3        30.33R
RIFLE          MOCLDY    63  59  87 S9        30.19R
DELTA          CLEAR     70  54  56 NE9       30.15S
NUCLA          CLEAR     64  50  59 E8        30.22R
$$

COZ017>023-064>068-111300-
...SOUTHWEST COLORADO...

CITY           SKY/WX    TMP DP  RH WIND       PRES   REMARKS
DURANGO        PTCLDY    55  52  89 CALM      30.24R
CORTEZ         CLEAR     61  53  75 E3        30.19R
PAGOSA SPRINGS PTCLDY    59  49  69 CALM      30.32S
TELLURIDE      NOT AVBL
WOLF CREEK PAS NOT AVBL
$$

COZ009-010-012-014-032>034-037-058>063-111300-
...CENTRAL COLORADO...

CITY           SKY/WX    TMP DP  RH WIND       PRES   REMARKS
ASPEN          PTCLDY    52  50  93 CALM      30.36R
BUENA VISTA    CLEAR     56  47  72 W9        30.34R
COPPER MTN     PTCLDY    52  37  58 SW7       30.62S
BERTHOUD PASS  MOCLDY    45  32  61 W16       30.65R
COTTONWOOD PAS CLEAR     61  41  48 CALM      30.47R
GUNNISON       CLEAR     52  45  76 N6        30.37R
KREMMLING      CLOUDY    55  52  88 CALM      30.33R
LEADVILLE      CLEAR     43  42  97 NE5       30.48R
MONARCH PASS   PTCLDY    48  37  66 W15       30.72R
SALIDA         CLEAR     57  46  66 W7        30.39R
SUNLIGHT       CLOUDY    50  50 100 NE3       30.55R
WILKERSON PASS PTCLDY    52  37  58 NW3       30.59S
$$

COZ069>075-111300-
...SAN LUIS VALLEY/SANGRE DE CRISTO MOUNTAINS...

CITY           SKY/WX    TMP DP  RH WIND       PRES   REMARKS
ALAMOSA        PTCLDY    54  49  83 E6        30.29R
LA VETA PASS   PTCLDY    52  45  76 SW6       30.48R
SAGUACHE       NOT AVBL
$$

COZ035-036-038>040-111300-
...NORTHERN COLORADO FRONT RANGE...

CITY           SKY/WX    TMP DP  RH WIND       PRES   REMARKS
DENVER INTL AP MOCLDY    65  56  72 CALM      30.13S
DMNS CITY PARK   N/A     64  57  77 E1        30.13S
AURORA         MOCLDY    64  57  76 W5        30.16S
FRONT RANGE AP NOT AVBL
ERIE MUNI ARPT MOCLDY    61  57  87 CALM      30.13S
BOULDER MUN AP MOCLDY    64  55  72 CALM      30.13S
CENTENNIAL     MOCLDY    65  54  67 W7        30.17S
BROOMFIELD     MOCLDY    66  55  68 CALM      30.15F
FORT COLLINS   MOCLDY    66  57  72 CALM      30.13F
LONGMONT       MOCLDY    65  59  80 CALM      30.13S
$$

COZ041-046-047-076>085-087-088-111300-
...PIKES PEAK/PALMER DIVIDE AND SOUTHERN FOOTHILLS...

CITY           SKY/WX    TMP DP  RH WIND       PRES   REMARKS
COLO. SPRINGS  PTCLDY    68  51  54 N21G28    30.16R
A. F. ACADEMY  PTCLDY    60  51  71 N10       30.20R
ELLICOTT       NOT AVBL
FALCON         PTCLDY    64  51  61 N15G25    30.20S
FORT CARSON    CLEAR     67  52  56 N13       30.13R
LIMON          PTCLDY    61  57  87 NW12      30.11S
MONUMENT HILL  PTCLDY    55  50  82 W8        30.24S
TRINIDAD       CLEAR     67  49  52 W10       30.14R
$$

COZ042>045-048>051-090-091-111300-
...NORTHEAST COLORADO...

CITY           SKY/WX    TMP DP  RH WIND       PRES   REMARKS
GREELEY ARPT   NOT AVBL
AKRON          CLOUDY    65  63  93 NE8       30.07R
BURLINGTON     PTCLDY    64  54  69 SW5       30.01R
WRAY           CLOUDY   N/A N/A N/A N9        30.01R
STERLING       CLOUDY    68  63  83 N5        30.03R
HOLYOKE        CLOUDY    68  63  83 E12       30.00F
FORT MORGAN    CLOUDY    64  57  78 N5        30.09R
$$

COZ086-089-092>099-111300-
...SOUTHEAST COLORADO...

CITY           SKY/WX    TMP DP  RH WIND       PRES   REMARKS
PUEBLO         CLEAR     69  54  58 NW7       30.05R
LA JUNTA       CLEAR     72  50  45 SW10      29.99R
LAMAR          CLEAR     74  48  39 S15       29.95R
SPRINGFIELD      N/A     68  49  50 S18       30.06R
$$


USA.gov is the U.S. government's official web portal to all federal, state and local government web resources and services.